Location: Laas
(43.4693°N, 0.3073°E)
Time: 14:59:46
(UTC+00:00)

SeaSat 1 - Pass Details

Date: 25 October 2020
Orbit: 744 x 747 km, 108.0° (Epoch: 24 November)

Event Time Altitude Azimuth Distance (km) Brightness Sun altitude
Exits shadow 17:32:11 - 80° (E) 2,436 4.4 -6.6°
Reaches altitude 10° 17:32:57 10° 73° (ENE) 2,266 4.3 -6.8°
Maximum altitude 17:35:24 14° 43° (NE) 2,008 4.2 -7.2°
Drops below altitude 10° 17:37:51 10° 13° (NNE) 2,273 4.7 -7.6°
Sets 17:41:11 0° 348° (NNW) 3,201 5.8 -8.2°
